Starlink 4256

operational
NORAD ID: 52994 Int'l Des: 2022-076 Owner: SPXS Country: US Constellation: starlink
LEOCIRCULAR

Über Starlink 4256

Beschreibung wird geladen...

Live-Position

3D-Globus wird geladen...

Nächste Überflüge

Höhenverlauf

Altitude vs Time

uPlot chart will show altitude changes over time

Zweizeiliger Elementsatz

1 52994U 22076J 25305.32717394 .00000443 00000-0 45928-4 0 9990
2 52994 53.2184 310.3663 0001503 106.0159 254.0999 15.08831406183463
Epoch: 1. Nov. 2025 • Age: 31 hours

Aktueller Status

Höhe 540.7 km
Geschwindigkeit 7.59 km/s
Subsatellitenpunkt -2.50°S, 138.69°W
Startdatum 7. Juli 2022
Alter 3.3 years
Typ internet

Technische Details

Klassifizierung Payload
Masse 297.00 kg
Trockenmasse 275.00 kg
Gesamtmasse 297.00 kg
Länge 0.20 m
Durchmesser 2.80 m
Spannweite 9.00 m
Form Box + pan
Hersteller SPXS
Bus-Typ Starlink
Phasenstatus In Orbit
Besitzer/Staat SPXS/US

Große Konstellationen

Loading constellations...